Waarnemingen

Advertentie
Mijn weer
Barth, Duitsland (10180): temperatuur & dauwpunt: 19.04.2018 07:00:00 - 25.04.2018 07:00:00 (CEST)Barth, Duitsland (10180): temperatuur 5cm & temperatuur -5cm: 19.04.2018 07:00:00 - 25.04.2018 07:00:00 (CEST)Barth, Duitsland (10180): temperatuur -20cm & temperatuur -100cm: 19.04.2018 07:00:00 - 25.04.2018 07:00:00 (CEST)Barth, Duitsland (10180): windsnelheid & windstoten: 19.04.2018 07:00:00 - 25.04.2018 07:00:00 (CEST)Barth, Duitsland (10180): windrichting: 19.04.2018 07:00:00 - 25.04.2018 07:00:00 (CEST)Barth, Duitsland (10180): luchtdruk: 19.04.2018 07:00:00 - 25.04.2018 07:00:00 (CEST)Barth, Duitsland (10180): zicht: 19.04.2018 07:00:00 - 25.04.2018 07:00:00 (CEST)Barth, Duitsland (10180): Zonneschijnduur: 19.04.2018 07:00:00 - 25.04.2018 07:00:00 (CEST)Barth, Duitsland (10180): neerslag: 19.04.2018 07:00:00 - 25.04.2018 07:00:00 (CEST)
Datum & Tijd tt [°C] td [°C] tt 5cm [°C] tt -5cm [°C] tt -20cm [°C] tt -100cm [°C] ff [km/u] ff [kn] fx [km/u] fx [kn] dd ppp [hPa] vv [km] sd [min] rr [mm]
25.04.2018 07:00:00 8,1 7,4 8,0 8,5 9,7 8,7 16 8 26 14 ZZO 1002,7 11 0 0,6
25.04.2018 06:00:00 7,7 6,8 7,4 8,4 9,8 8,7 17 9 25 14 ZZO 1004,1 9 0 0,6
25.04.2018 05:00:00 7,6 6,6 7,3 8,5 9,9 8,7 11 6 16 8 ZZO 1005,4 7 0 1,1
25.04.2018 04:00:00 7,8 7,2 7,6 8,6 10,1 8,7 7 4 12 7 Z 1006,9 5 0 0,9
25.04.2018 03:00:00 8,0 7,2 7,6 8,6 10,2 8,7 8 5 14 8 ZW 1007,8 7 0 0,5
25.04.2018 02:00:00 8,1 6,9 7,5 8,6 10,3 8,7 10 5 25 13 WZW 1008,8 9 0 0,6
25.04.2018 01:00:00 9,1 6,3 7,8 8,7 10,5 8,7 19 10 35 19 W 1009,6 8 0 0,1
25.04.2018 00:00:00 10,2 5,3 9,2 8,6 10,8 8,7 17 9 26 14 WZW 1010,1 47 0 0,0
24.04.2018 23:00:00 9,3 5,6 8,2 8,4 11,2 8,7 15 8 26 14 WZW 1010,2 36 0 0,0
24.04.2018 22:00:00 9,6 5,5 8,1 8,9 11,6 8,7 17 9 37 20 W 1010,7 37 0 0,0
24.04.2018 21:00:00 11,1 4,7 9,3 9,7 12,0 8,7 21 11 30 16 W 1010,6 57 0 0,0
24.04.2018 20:00:00 11,1 5,4 10,4 11,3 12,2 8,7 18 10 31 17 WZW 1010,3 58 1 0,0
24.04.2018 19:00:00 11,8 5,5 11,9 12,5 12,3 8,7 22 12 45 24 W 1010,6 44 27 0,0
24.04.2018 18:00:00 12,7 5,0 14,1 14,3 12,2 8,7 32 17 47 25 W 1010,5 18 54 0,0
24.04.2018 17:00:00 13,7 6,2 15,7 15,4 11,9 8,7 29 15 60 33 W 1010,7 15 57 0,0
24.04.2018 16:00:00 14,0 7,4 15,9 14,6 11,5 8,7 42 23 63 34 W 1010,4 16 50 0,0
24.04.2018 15:00:00 14,0 8,4 16,5 14,3 11,2 8,7 34 19 58 31 WZW 1010,3 14 12 0,0
24.04.2018 14:00:00 13,3 8,0 13,9 13,3 10,9 8,7 30 16 50 27 WZW 1010,6 22 0 0,0
24.04.2018 13:00:00 12,7 8,3 13,2 13,0 10,6 8,7 32 17 51 27 WZW 1010,4 18 0 0,0
24.04.2018 12:00:00 13,0 7,9 13,8 13,2 10,2 8,6 30 16 44 24 WZW 1010,1 27 3 0,0
24.04.2018 11:00:00 11,7 7,8 13,1 11,4 10,0 8,6 23 12 40 22 ZW 1010,2 16 0 0,0
24.04.2018 10:00:00 12,1 7,0 13,3 11,3 9,6 8,6 25 13 41 22 ZW 1010,1 26 1 0,0
24.04.2018 09:00:00 11,2 6,6 12,2 10,1 9,4 8,6 23 13 36 19 ZZW 1010,4 20 0 0,0
24.04.2018 08:00:00 9,8 6,3 9,8 8,4 9,4 8,6 18 10 29 15 ZZW 1011,0 20 0 0,0
24.04.2018 07:00:00 8,7 5,1 8,1 7,4 9,5 8,6 17 9 30 16 ZZW 1011,4 26 0 0,0
24.04.2018 06:00:00 8,2 4,5 7,2 6,8 9,7 8,6 15 8 24 13 ZZW 1011,6 26 0 0,0
24.04.2018 05:00:00 7,6 4,5 6,5 6,5 9,9 8,6 16 9 25 13 ZW 1012,2 28 0 0,0
24.04.2018 04:00:00 7,5 4,5 6,0 6,5 10,3 8,6 18 10 26 14 ZW 1012,4 37 0 0,0
24.04.2018 03:00:00 7,4 4,6 5,9 6,8 10,6 8,6 16 9 24 13 ZW 1012,8 53 0 0,0
24.04.2018 02:00:00 7,6 4,6 5,6 7,1 11,0 8,6 15 8 27 15 WZW 1013,0 70 0 0,0
24.04.2018 01:00:00 8,0 4,6 6,0 7,4 11,5 8,6 16 9 23 12 WZW 1013,0 70 0 0,0
24.04.2018 00:00:00 8,6 5,1 6,7 8,1 11,9 8,6 16 9 35 19 WZW 1012,9 64 0 0,0
23.04.2018 23:00:00 10,3 4,6 8,7 8,8 12,4 8,6 25 14 37 20 W 1013,0 70 0 0,0
23.04.2018 22:00:00 10,1 5,7 8,5 9,5 13,0 8,6 21 11 39 21 W 1012,9 66 0 0,0
23.04.2018 21:00:00 10,4 5,5 8,8 10,5 13,5 8,5 20 11 45 24 W 1012,6 70 13 0,0
23.04.2018 20:00:00 11,7 6,0 10,8 12,3 13,9 8,5 24 13 42 23 WNW 1011,9 41 60 0,0
23.04.2018 19:00:00 13,2 7,0 13,9 14,5 14,1 8,5 21 12 43 23 W 1011,6 28 59 0,0
23.04.2018 18:00:00 14,0 6,7 14,4 16,1 14,1 8,5 28 15 45 24 W 1011,5 37 60 0,0
23.04.2018 17:00:00 14,5 7,6 16,9 17,2 13,9 8,5 29 15 46 25 W 1011,2 18 52 0,0
23.04.2018 16:00:00 14,7 8,4 17,1 18,3 13,4 8,5 28 15 45 24 W 1011,1 19 60 0,0
23.04.2018 15:00:00 14,6 9,2 18,9 18,1 13,1 8,5 27 14 46 25 WNW 1011,0 9 36 0,0
23.04.2018 14:00:00 13,6 10,5 15,0 15,4 12,9 8,5 24 13 43 23 W 1010,9 7 0 0,0
23.04.2018 13:00:00 13,7 10,4 14,7 15,1 12,7 8,5 26 14 46 25 W 1010,2 7 2 0,0
23.04.2018 12:00:00 14,9 11,0 18,4 16,4 12,4 8,5 28 15 44 24 W 1009,6 6 7 0,0
23.04.2018 11:00:00 15,8 11,6 17,1 16,4 11,9 8,5 38 21 55 30 W 1008,7 7 46 0,0
23.04.2018 10:00:00 16,8 12,3 17,8 15,2 11,4 8,5 31 17 42 23 WZW 1007,9 15 26 0,0
23.04.2018 09:00:00 15,8 12,2 15,8 13,2 11,1 8,4 18 10 29 16 ZW 1007,7 18 2 0,0
23.04.2018 08:00:00 14,3 11,6 13,9 11,4 11,1 8,4 13 7 18 10 ZZW 1007,7 15 1 0,0
23.04.2018 07:00:00 11,6 10,0 10,6 9,7 11,2 8,4 10 6 13 7 ZZW 1007,6 11 0 0,0
23.04.2018 06:00:00 8,7 7,7 5,9 9,2 11,5 8,4 8 4 10 5 Z 1007,4 8 0 0,0
23.04.2018 05:00:00 11,5 9,1 8,7 10,2 11,6 8,4 5 3 16 9 Z 1007,5 17 0 0,1
23.04.2018 04:00:00 12,5 9,0 10,5 10,5 11,7 8,4 10 5 18 10 ZZO 1008,0 18 0 0,1
23.04.2018 03:00:00 11,8 8,0 10,5 10,2 11,9 8,4 7 4 19 10 Z 1008,7 32 0 0,0
23.04.2018 02:00:00 11,5 7,7 10,6 10,0 12,2 8,4 11 6 22 12 ZO 1009,2 37 0 0,0
23.04.2018 01:00:00 10,3 7,4 9,2 9,9 12,6 8,4 12 6 29 16 OZO 1010,3 34 0 0,0
23.04.2018 00:00:00 10,8 6,4 9,7 10,0 13,1 8,4 23 12 34 19 O 1010,8 33 0 0,0
22.04.2018 23:00:00 10,9 6,7 9,8 10,6 13,6 8,4 18 10 24 13 O 1011,7 26 0 0,0
22.04.2018 22:00:00 10,7 6,6 9,1 11,1 14,2 8,4 18 10 23 13 O 1012,2 20 0 0,0
22.04.2018 21:00:00 10,9 6,7 9,2 12,3 14,8 8,4 17 9 23 12 O 1012,2 33 0 0,0
22.04.2018 20:00:00 12,0 7,4 10,8 14,1 15,3 8,4 17 9 35 19 O 1012,5 33 39 0,0
22.04.2018 19:00:00 14,8 7,0 15,0 16,5 15,6 8,3 24 13 32 17 O 1012,7 23 60 0,0
22.04.2018 18:00:00 16,8 9,9 19,0 19,2 15,6 8,3 16 8 26 14 ONO 1013,1 16 60 0,0
22.04.2018 17:00:00 15,9 8,1 18,9 20,6 15,3 8,3 17 9 24 13 NO 1014,2 18 60 0,0
22.04.2018 16:00:00 16,2 8,7 21,3 21,7 14,8 8,3 14 8 24 13 NO 1015,0 24 60 0,0
22.04.2018 15:00:00 15,5 7,2 22,2 22,4 14,1 8,3 11 6 22 12 NO 1015,8 23 60 0,0
22.04.2018 14:00:00 15,6 8,1 23,6 22,1 13,2 8,3 12 7 22 12 NNO 1016,1 24 60 0,0
22.04.2018 13:00:00 15,2 8,0 22,8 20,8 12,3 8,3 14 7 23 12 NNO 1016,7 21 60 0,0
22.04.2018 12:00:00 15,3 6,6 19,4 19,3 11,3 8,3 11 6 18 10 WZW 1017,2 25 60 0,0
22.04.2018 11:00:00 14,7 6,5 18,5 17,1 10,4 8,3 8 4 14 7 ZZW 1017,5 31 60 0,0
22.04.2018 10:00:00 13,0 8,2 16,5 14,3 9,7 8,2 8 4 11 6 ZZW 1017,5 19 60 0,0
22.04.2018 09:00:00 11,1 8,0 14,0 11,1 9,2 8,2 5 3 9 5 ZW 1017,8 11 60 0,0
22.04.2018 08:00:00 8,6 6,8 9,7 7,6 9,3 8,2 6 4 9 5 ZW 1018,0 10 60 0,0
22.04.2018 07:00:00 3,5 2,9 1,9 5,0 9,6 8,2 3 2 5 3 Z 1018,2 6 34 0,0
22.04.2018 06:00:00 2,7 2,7 -0,7 5,0 10,0 8,2 3 1 5 3 Z 1018,1 1,7 0 0,0
22.04.2018 05:00:00 3,3 3,1 0,0 5,6 10,4 8,2 5 3 6 3 ZZW 1018,5 4,4 0 0,0
22.04.2018 04:00:00 4,7 3,8 0,5 6,1 10,9 8,2 3 2 6 3 WZW 1018,7 13 0 0,0
22.04.2018 03:00:00 5,9 4,4 1,1 6,6 11,4 8,1 4 2 10 5 W 1019,0 24 0 0,0
22.04.2018 02:00:00 5,1 3,3 0,9 7,2 11,9 8,1 5 3 8 4 WZW 1019,3 34 0 0,0
22.04.2018 01:00:00 5,3 3,8 0,9 7,8 12,5 8,1 5 3 6 3 ZW 1019,4 33 0 0,0
22.04.2018 00:00:00 5,6 4,2 1,6 8,6 13,1 8,1 2 1 6 3 Z 1019,3 48 0 0,0
21.04.2018 23:00:00 5,6 3,9 2,6 9,6 13,7 8,1 5 3 5 3 ZZW 1019,4 53 0 0,0
21.04.2018 22:00:00 8,2 4,8 3,0 10,7 14,3 8,1 2 1 7 4 WZW 1019,6 70 0 0,0
21.04.2018 21:00:00 9,9 5,2 4,4 12,3 14,9 8,1 2 1 13 7 WZW 1019,9 70 12 0,0
21.04.2018 20:00:00 12,2 5,5 10,2 14,1 15,3 8,1 8 4 17 9 W 1019,8 70 60 0,0
21.04.2018 19:00:00 13,8 5,2 14,7 16,0 15,7 8,0 14 7 29 16 W 1020,1 70 60 0,0
21.04.2018 18:00:00 14,6 5,1 16,7 18,0 15,7 8,0 19 11 28 15 W 1020,4 22 60 0,0
21.04.2018 17:00:00 15,3 5,8 17,4 19,7 15,6 8,0 20 11 26 14 W 1020,7 17 60 0,0
21.04.2018 16:00:00 15,6 7,1 19,1 20,8 15,3 8,0 19 10 29 16 W 1021,0 15 60 0,0
21.04.2018 15:00:00 15,3 7,1 19,4 21,2 14,7 8,0 19 10 30 16 WNW 1021,2 12 60 0,0
21.04.2018 14:00:00 15,1 6,6 20,0 21,4 14,0 8,0 19 10 27 15 WNW 1021,3 14 60 0,0
21.04.2018 13:00:00 14,7 7,2 19,6 20,6 13,3 7,9 20 11 29 16 W 1021,4 9 60 0,0
21.04.2018 12:00:00 14,1 7,5 19,1 19,1 12,5 7,9 21 11 28 15 WNW 1021,4 8 60 0,0
21.04.2018 11:00:00 14,1 7,5 17,7 17,2 11,8 7,9 16 8 27 14 W 1021,0 9 60 0,0
21.04.2018 10:00:00 13,7 7,0 17,7 14,6 11,4 7,9 18 10 28 15 NW 1020,5 13 60 0,0
21.04.2018 09:00:00 12,5 7,2 15,7 12,4 11,1 7,9 14 8 23 12 NW 1020,0 8 60 0,0
21.04.2018 08:00:00 10,9 7,6 12,3 10,1 11,2 7,8 12 7 18 10 WNW 1019,6 4,1 60 0,0
21.04.2018 07:00:00 8,5 7,6 7,6 8,4 11,5 7,8 9 5 15 8 W 1019,0 1,3 11 0,0
21.04.2018 06:00:00 8,0 7,2 6,1 8,4 11,9 7,8 11 6 14 8 W 1018,4 1,2 0 0,0
21.04.2018 05:00:00 8,6 7,4 7,0 9,0 12,3 7,8 11 6 18 10 W 1018,2 1,3 0 0,0
21.04.2018 04:00:00 9,7 7,6 8,4 9,6 12,7 7,8 14 8 23 12 W 1018,2 1,9 0 0,0
21.04.2018 03:00:00 10,8 7,9 9,0 10,1 13,1 7,8 14 8 25 14 W 1018,0 2,4 0 0,0
21.04.2018 02:00:00 11,7 8,1 10,2 10,6 13,5 7,8 18 10 26 14 W 1018,0 3,1 0 0,0
21.04.2018 01:00:00 12,3 8,5 10,5 11,1 14,0 7,7 16 9 30 16 W 1018,2 3,3 0 0,0
21.04.2018 00:00:00 13,3 8,6 11,2 11,8 14,5 7,7 21 11 29 16 W 1018,2 4,3 0 0,0
20.04.2018 23:00:00 14,4 8,4 12,3 12,5 15,1 7,7 19 11 32 17 W 1018,1 7 0 0,0
20.04.2018 22:00:00 15,7 8,4 13,7 13,3 15,7 7,7 23 12 40 22 W 1018,3 10 0 0,0
20.04.2018 21:00:00 16,6 8,3 14,5 14,6 16,3 7,7 24 13 37 20 W 1018,2 12 0 0,0
20.04.2018 20:00:00 18,9 9,2 17,2 16,6 16,8 7,7 24 13 42 23 W 1017,8 13 35 0,0
20.04.2018 19:00:00 21,6 9,7 20,7 19,1 17,0 7,7 29 16 46 25 WNW 1017,8 14 60 0,0
20.04.2018 18:00:00 25,8 8,5 24,9 21,2 17,0 7,6 21 11 37 20 ZW 1017,8 23 60 0,0
20.04.2018 17:00:00 26,1 11,1 26,0 23,0 16,7 7,6 20 11 31 17 ZW 1018,4 20 60 0,0
20.04.2018 16:00:00 25,9 11,2 26,9 24,0 16,2 7,6 21 11 34 18 ZZW 1019,3 13 60 0,0
20.04.2018 15:00:00 26,1 13,2 28,1 24,5 15,6 7,6 19 11 35 19 ZW 1020,2 18 60 0,0
20.04.2018 14:00:00 24,5 12,6 27,2 24,1 14,8 7,6 23 12 37 20 Z 1021,0 14 60 0,0
20.04.2018 13:00:00 23,6 12,9 26,4 23,7 13,8 7,6 24 13 40 22 Z 1021,8 14 60 0,0
20.04.2018 12:00:00 22,2 14,5 25,2 22,2 12,9 7,5 19 11 28 15 ZZO 1022,8 17 60 0,0
20.04.2018 11:00:00 20,5 14,0 22,9 20,0 12,0 7,5 16 8 23 12 ZZO 1023,7 14 60 0,0
20.04.2018 10:00:00 18,5 13,2 21,1 17,1 11,3 7,5 16 9 21 11 ZZO 1024,3 16 60 0,0
20.04.2018 09:00:00 16,1 12,6 18,0 14,1 11,0 7,5 13 7 19 10 ZZO 1025,0 11 59 0,0
20.04.2018 08:00:00 14,0 11,7 13,5 11,2 10,9 7,5 14 7 20 11 ZZO 1025,5 10 60 0,0
20.04.2018 07:00:00 11,2 10,0 10,0 9,1 11,1 7,5 11 6 14 8 ZZO 1026,0 7 25 0,0
20.04.2018 06:00:00 10,1 9,1 7,2 8,8 11,4 7,4 10 5 13 7 ZZO 1026,3 8 0 0,0
20.04.2018 05:00:00 9,9 9,2 5,2 9,0 11,8 7,4 9 5 12 6 ZZO 1026,9 10 0 0,0
20.04.2018 04:00:00 10,9 9,5 7,3 9,4 12,1 7,4 8 4 12 7 ZO 1027,3 11 0 0,0
20.04.2018 03:00:00 10,3 9,4 6,6 9,7 12,6 7,4 6 3 13 7 ZZO 1027,5 7 0 0,0
20.04.2018 02:00:00 10,7 9,9 5,0 9,9 13,1 7,4 8 4 10 5 ZZO 1028,1 7 0 0,0
20.04.2018 01:00:00 10,4 9,2 6,7 10,6 13,6 7,4 8 4 10 5 ZZO 1028,6 6 0 0,0
20.04.2018 00:00:00 9,4 8,5 6,6 11,4 14,2 7,4 3 2 9 5 ZO 1028,8 4,2 0 0,0
19.04.2018 23:00:00 10,6 9,7 6,5 12,4 14,8 7,4 6 3 10 5 ZO 1029,1 7 0 0,0
19.04.2018 22:00:00 11,7 10,5 7,6 13,6 15,3 7,3 4 2 13 7 ZO 1029,6 6 0 0,0
19.04.2018 21:00:00 12,7 10,9 9,6 15,2 15,8 7,3 10 5 13 7 OZO 1029,7 6 0 0,0
19.04.2018 20:00:00 15,9 12,8 14,6 17,3 16,2 7,3 12 6 17 9 O 1029,8 9 59 0,0
19.04.2018 19:00:00 18,1 12,0 19,2 19,4 16,4 7,3 12 6 18 10 ONO 1030,2 38 60 0,0
19.04.2018 18:00:00 18,3 11,8 19,9 20,6 16,4 7,3 13 7 18 10 NO 1030,6 28 60 0,0
19.04.2018 17:00:00 18,9 12,6 21,9 22,9 16,1 7,3 13 7 18 10 ONO 1030,9 15 60 0,0
19.04.2018 16:00:00 19,3 12,0 24,7 23,8 15,6 7,3 11 6 16 9 NO 1031,4 19 60 0,0
19.04.2018 15:00:00 19,4 12,2 25,9 24,5 14,8 7,3 11 6 17 9 N 1031,8 16 60 0,0
19.04.2018 14:00:00 20,1 13,4 26,7 24,9 13,9 7,2 8 4 17 9 NNO 1032,0 13 60 0,0
19.04.2018 13:00:00 19,7 12,8 25,3 24,5 12,7 7,2 8 5 17 9 NO 1032,2 17 60 0,0
19.04.2018 12:00:00 19,2 11,9 24,2 22,1 11,6 7,2 5 3 11 6 Z 1032,5 21 60 0,0
19.04.2018 11:00:00 18,3 11,5 21,3 19,1 10,6 7,2 4 2 10 6 Z 1032,6 26 60 0,0
19.04.2018 10:00:00 16,8 12,1 20,4 15,8 9,8 7,2 4 2 10 5 Z 1032,5 12 60 0,0
19.04.2018 09:00:00 14,0 11,1 17,1 12,2 9,5 7,2 4 2 7 4 ZW 1032,5 6 60 0,0
19.04.2018 08:00:00 10,6 9,6 11,3 8,8 9,5 7,2 2 1 4 2 ZZO 1032,4 2,7 60 0,0
19.04.2018 07:00:00 5,9 5,8 4,6 6,9 9,8 7,2 2 1 7 4 Z 1032,2 0,2 5 0,0

tt = temperatuur
td = dauwpunt
tt 5cm = temperatuur 5cm
tt -5cm = temperatuur -5cm
tt -20cm = temperatuur -20cm
tt -100cm = temperatuur -100cm
ff = windsnelheid
fx = windstoten
dd = windrichting
ppp = luchtdruk
vv = zicht
sd = Zonneschijnduur
rr = neerslag

Weerstations in de omgeving